Location: Miss�
(46.9484°N, 0.1922°W)
Time: 07:33:25
(UTC+00:00)

Cosmos 1295 Rocket - Pass Details

Date: 02 March 2021
Orbit: 943 x 994 km, 82.9° (Epoch: 12 April)

Event Time Altitude Azimuth Distance (km) Brightness Sun altitude
Rises 18:56:18 0° 179° (S) 3,678 7.5 -12.5°
Reaches altitude 10° 18:58:49 10° 178° (S) 2,728 6.8 -12.9°
Maximum altitude 19:05:02 72° 95° (E) 1,023 4.4 -13.9°
Drops below altitude 10° 19:11:13 10° 12° (NNE) 2,711 6.8 -15.0°
Sets 19:13:43 0° 11° (N) 3,655 7.5 -15.4°
